This demonstration page uses our WeatherBlox Daily Observations layout. Learn more.

Left ArrowRight Arrow

39.01783, -85.05884

Hourly Observations for June 2, 2017

Temp ( °F °C ) Dew Point ( °F °C ) Humidity (%) Winds ( mph kmh ) Pressure ( in mb ) Visibility ( mi km ) Precip ( " mm )
12:52 am 00:52 Clear 56 13.3 48 8.9 75 75 N N/A 30.04 1017 10 16 N/A
1:52 am 01:52 Clear 55 12.8 50 10 83 83 W 3 6 30.04 1017 10 16 N/A
2:52 am 02:52 Clear 57 13.9 49 9.4 74 74 VRB 5 7 30.04 1017 10 16 N/A
3:52 am 03:52 Clear 55 12.8 48 8.9 77 77 N N/A 30.05 1018 10 16 N/A
4:52 am 04:52 Clear 54 12.2 47 8.3 77 77 N N/A 30.06 1018 10 16 N/A
5:52 am 05:52 Clear 50 10 48 8.9 93 93 N N/A 30.08 1019 10 16 N/A
6:52 am 06:52 Sunny 51 10.6 50 10 96 96 S 3 6 30.09 1019 9 14 N/A
7:52 am 07:52 Sunny 61 16.1 53 11.7 75 75 N N/A 30.10 1019 10 16 N/A
8:52 am 08:52 Sunny 68 20 52 11.1 57 57 N N/A 30.11 1020 10 16 N/A
9:52 am 09:52 Sunny 72 22.2 47 8.3 41 41 N N/A 30.12 1020 10 16 N/A
10:52 am 10:52 Sunny 76 24.4 46 7.8 35 35 N N/A 30.11 1020 10 16 N/A
11:52 am 11:52 Sunny 78 25.6 46 7.8 32 32 W 5 7 30.10 1019 10 16 N/A
12:52 pm 12:52 Sunny 79 26.1 47 8.3 32 32 VRB 3 6 30.10 1019 10 16 N/A
1:52 pm 13:52 Mostly Sunny 81 27.2 47 8.3 30 30 VRB 3 6 30.09 1019 10 16 N/A
2:52 pm 14:52 Mostly Sunny 81 27.2 43 6.1 26 26 N 9 15 30.08 1019 10 16 N/A
3:52 pm 15:52 Mostly Sunny 82 27.8 45 7.2 27 27 VRB 7 11 30.06 1018 10 16 N/A
4:52 pm 16:52 Mostly Sunny 83 28.3 46 7.8 27 27 VRB 3 6 30.05 1018 10 16 N/A
5:52 pm 17:52 Mostly Sunny 81 27.2 47 8.3 30 30 WSW 6 9 30.04 1017 10 16 N/A
6:52 pm 18:52 Mostly Sunny 81 27.2 47 8.3 30 30 W 3 6 30.03 1017 10 16 N/A
8:52 pm 20:52 Sunny 76 24.4 46 7.8 35 35 WSW 3 6 30.03 1017 10 16 N/A
9:52 pm 21:52 Clear 67 19.4 49 9.4 53 53 SSW 3 6 30.04 1017 10 16 N/A
10:52 pm 22:52 Clear 64 17.8 50 10 60 60 S 3 6 30.04 1017 10 16 N/A
11:52 pm 23:52 Clear 66 18.9 49 9.4 54 54 N N/A 30.04 1017 10 16 N/A

Powered by AerisWeather